WMT2400 LATI-LIBP

Flight info

Callsign WMT2400
Flight time 0h 51m
Altitude 36000
Route DIRES DCT PAPIZ DCT ENOXA DCT BANAV DCT GARGA DCT RIVAM M169 ERPOG
Aircraft A321/M-SDE3FGHIRWY/LB1

Departure

Time 2026-05-01 13:36
Airport Tirana International Airport Mother Teresa (LATI)

Arrival

Time 2026-05-01 14:27
Airport Abruzzo Airport (LIBP)
Time Latitude Longitude Altitude Speed Heading
2026-05-01 12:57 41.41871 19.71530 120 ft 0 kts 264°
2026-05-01 12:57 41.41831 19.71532 120 ft 0 kts 264°
2026-05-01 13:27 41.41832 19.71541 124 ft 4 kts 261°
2026-05-01 13:27 41.41861 19.71591 123 ft 4 kts 182°
2026-05-01 13:28 41.41872 19.71591 122 ft 0 kts 174°
2026-05-01 13:31 41.41821 19.71598 120 ft 10 kts 174°
2026-05-01 13:31 41.41509 19.71640 126 ft 18 kts 174°
2026-05-01 13:32 41.41213 19.71679 129 ft 23 kts 174°
2026-05-01 13:33 41.40735 19.71761 132 ft 24 kts 173°
2026-05-01 13:33 41.40426 19.71806 132 ft 18 kts 168°
2026-05-01 13:34 41.40255 19.71958 133 ft 13 kts 133°
2026-05-01 13:34 41.40250 19.72187 133 ft 8 kts 84°
2026-05-01 13:35 41.40281 19.72218 132 ft 5 kts 355°
2026-05-01 13:35 41.40529 19.72186 132 ft 72 kts 354°
2026-05-01 13:35 41.42275 19.71952 540 ft 147 kts 357°
2026-05-01 13:36 41.43288 19.71811 1352 ft 148 kts 359°
2026-05-01 13:36 41.44333 19.71667 1941 ft 158 kts 359°
2026-05-01 13:36 41.46828 19.71359 2538 ft 203 kts 358°
2026-05-01 13:37 41.48310 19.71171 2736 ft 227 kts 357°
2026-05-01 13:37 41.49964 19.70952 3106 ft 247 kts 357°
2026-05-01 13:37 41.51697 19.70717 3868 ft 250 kts 359°
2026-05-01 13:37 41.53412 19.70485 4694 ft 254 kts 358°
2026-05-01 13:38 41.57016 19.70002 6142 ft 266 kts 356°
2026-05-01 13:38 41.58882 19.69753 6869 ft 272 kts 356°
2026-05-01 13:38 41.60773 19.69410 7601 ft 278 kts 346°
2026-05-01 13:39 41.62434 19.68068 8361 ft 286 kts 314°
2026-05-01 13:39 41.63425 19.65749 9144 ft 292 kts 288°
2026-05-01 13:39 41.63663 19.63047 9929 ft 298 kts 266°
2026-05-01 13:39 41.63063 19.60383 10585 ft 305 kts 240°
2026-05-01 13:40 41.61666 19.58213 11001 ft 320 kts 215°
2026-05-01 13:40 41.59670 19.56694 11154 ft 341 kts 207°
2026-05-01 13:40 41.57501 19.55201 11409 ft 358 kts 206°
2026-05-01 13:40 41.55251 19.53663 11907 ft 366 kts 207°
2026-05-01 13:41 41.52964 19.52093 12492 ft 373 kts 207°
2026-05-01 13:41 41.50656 19.50493 13229 ft 374 kts 208°
2026-05-01 13:41 41.48336 19.48871 13935 ft 377 kts 208°
2026-05-01 13:41 41.46003 19.47235 14516 ft 381 kts 208°
2026-05-01 13:42 41.43650 19.45584 15103 ft 384 kts 208°
2026-05-01 13:42 41.41267 19.43911 15599 ft 390 kts 208°
2026-05-01 13:42 41.38856 19.42222 16227 ft 392 kts 208°
2026-05-01 13:42 41.36438 19.40533 16922 ft 393 kts 208°
2026-05-01 13:43 41.33999 19.38834 17507 ft 397 kts 210°
2026-05-01 13:43 41.31587 19.37120 18097 ft 399 kts 214°
2026-05-01 13:43 41.29452 19.34797 18631 ft 397 kts 231°
2026-05-01 13:43 41.27938 19.31758 19156 ft 394 kts 248°
2026-05-01 13:44 41.27171 19.28286 19681 ft 392 kts 266°
2026-05-01 13:44 41.27211 19.24706 20227 ft 388 kts 282°
2026-05-01 13:44 41.28001 19.21286 20690 ft 389 kts 294°
2026-05-01 13:44 41.29019 19.17934 21205 ft 392 kts 294°
2026-05-01 13:45 41.30038 19.14568 21702 ft 395 kts 293°
2026-05-01 13:45 41.31064 19.11150 22154 ft 399 kts 291°
2026-05-01 13:45 41.31871 19.07595 22601 ft 403 kts 287°
2026-05-01 13:45 41.32621 19.03993 23113 ft 405 kts 287°
2026-05-01 13:46 41.33373 19.00366 23558 ft 408 kts 287°
2026-05-01 13:46 41.34129 18.96715 24006 ft 410 kts 288°
2026-05-01 13:46 41.34889 18.93055 24441 ft 411 kts 287°
2026-05-01 13:46 41.35654 18.89371 24781 ft 414 kts 287°
2026-05-01 13:47 41.36422 18.85668 25189 ft 416 kts 287°
2026-05-01 13:47 41.37196 18.81939 25513 ft 420 kts 287°
2026-05-01 13:47 41.37972 18.78189 25950 ft 420 kts 287°
2026-05-01 13:47 41.38748 18.74431 26335 ft 422 kts 287°
2026-05-01 13:48 41.39525 18.70652 26712 ft 424 kts 287°
2026-05-01 13:48 41.40304 18.66846 27062 ft 426 kts 287°
2026-05-01 13:48 41.41087 18.63023 27398 ft 429 kts 287°
2026-05-01 13:48 41.41873 18.59182 27757 ft 431 kts 287°
2026-05-01 13:49 41.42663 18.55320 28058 ft 434 kts 286°
2026-05-01 13:49 41.43190 18.52740 28279 ft 435 kts 287°
2026-05-01 13:49 41.44239 18.47578 28761 ft 437 kts 286°
2026-05-01 13:49 41.45034 18.43653 29147 ft 438 kts 287°
2026-05-01 13:50 41.45831 18.39720 29427 ft 442 kts 286°
2026-05-01 13:50 41.46635 18.35741 29653 ft 446 kts 286°
2026-05-01 13:50 41.47168 18.33089 29854 ft 448 kts 286°
2026-05-01 13:50 41.47970 18.29086 30274 ft 447 kts 286°
2026-05-01 13:51 41.48770 18.25082 30649 ft 446 kts 286°
2026-05-01 13:51 41.49570 18.21096 31021 ft 444 kts 286°
2026-05-01 13:51 41.50370 18.17124 31399 ft 443 kts 286°
2026-05-01 13:51 41.51167 18.13165 31766 ft 441 kts 286°
2026-05-01 13:52 41.51956 18.09215 32129 ft 440 kts 286°
2026-05-01 13:52 41.52742 18.05273 32496 ft 439 kts 286°
2026-05-01 13:52 41.53524 18.01347 32857 ft 437 kts 286°
2026-05-01 13:52 41.54300 17.97429 33213 ft 436 kts 286°
2026-05-01 13:53 41.55075 17.93514 33564 ft 435 kts 286°
2026-05-01 13:53 41.56601 17.85768 34236 ft 432 kts 285°
2026-05-01 13:53 41.57362 17.81887 34510 ft 431 kts 285°
2026-05-01 13:54 41.58121 17.78014 34768 ft 430 kts 285°
2026-05-01 13:54 41.58881 17.74151 35013 ft 430 kts 285°
2026-05-01 13:54 41.59636 17.70287 35241 ft 430 kts 285°
2026-05-01 13:54 41.60389 17.66408 35462 ft 431 kts 285°
2026-05-01 13:55 41.61136 17.62540 35698 ft 430 kts 285°
2026-05-01 13:55 41.61883 17.58666 35950 ft 430 kts 285°
2026-05-01 13:55 41.62631 17.54795 36129 ft 430 kts 285°
2026-05-01 13:55 41.63381 17.50928 36173 ft 430 kts 285°
2026-05-01 13:56 41.64871 17.43200 36182 ft 429 kts 285°
2026-05-01 13:56 41.66344 17.35517 36182 ft 430 kts 285°
2026-05-01 13:57 41.67829 17.27750 36188 ft 431 kts 285°
2026-05-01 13:57 41.69304 17.19962 36188 ft 431 kts 285°
2026-05-01 13:58 41.70778 17.12172 36197 ft 432 kts 285°
2026-05-01 13:58 41.72300 17.04389 36192 ft 432 kts 290°
2026-05-01 13:59 41.75100 16.97417 36204 ft 429 kts 309°
2026-05-01 13:59 41.78903 16.91235 36200 ft 431 kts 310°
2026-05-01 14:00 41.82698 16.85001 36204 ft 432 kts 309°
2026-05-01 14:00 41.86479 16.78735 36209 ft 432 kts 309°
2026-05-01 14:01 41.90269 16.72457 36217 ft 433 kts 309°
2026-05-01 14:01 41.94076 16.66176 36024 ft 433 kts 310°
2026-05-01 14:02 41.95980 16.63036 35789 ft 433 kts 310°
2026-05-01 14:02 41.97876 16.59895 35560 ft 433 kts 310°
2026-05-01 14:02 41.99769 16.56747 35324 ft 433 kts 310°
2026-05-01 14:02 42.01658 16.53595 35091 ft 433 kts 310°
2026-05-01 14:03 42.03365 16.50259 34861 ft 436 kts 298°
2026-05-01 14:03 42.04675 16.46567 34600 ft 438 kts 297°
2026-05-01 14:03 42.05973 16.42820 33753 ft 444 kts 297°
2026-05-01 14:03 42.07270 16.39028 32965 ft 447 kts 297°
2026-05-01 14:04 42.08561 16.35212 32127 ft 450 kts 297°
2026-05-01 14:04 42.09845 16.31412 31362 ft 452 kts 297°
2026-05-01 14:04 42.11141 16.27575 30896 ft 448 kts 298°
2026-05-01 14:04 42.12429 16.23767 30340 ft 446 kts 298°
2026-05-01 14:05 42.13711 16.19982 29731 ft 442 kts 298°
2026-05-01 14:05 42.14979 16.16233 29207 ft 437 kts 298°
2026-05-01 14:05 42.16232 16.12530 28661 ft 432 kts 298°
2026-05-01 14:05 42.17473 16.08865 28127 ft 428 kts 298°
2026-05-01 14:06 42.18701 16.05236 27602 ft 423 kts 298°
2026-05-01 14:06 42.19932 16.01641 27039 ft 420 kts 298°
2026-05-01 14:06 42.21163 15.98087 26489 ft 416 kts 298°
2026-05-01 14:06 42.22386 15.94568 25960 ft 413 kts 299°
2026-05-01 14:07 42.23602 15.91070 25441 ft 410 kts 298°
2026-05-01 14:07 42.24810 15.87590 24911 ft 408 kts 298°
2026-05-01 14:07 42.26007 15.84137 24406 ft 405 kts 298°
2026-05-01 14:08 42.28372 15.77267 23366 ft 401 kts 298°
2026-05-01 14:08 42.29536 15.73868 22890 ft 396 kts 298°
2026-05-01 14:08 42.30684 15.70506 22431 ft 393 kts 298°
2026-05-01 14:08 42.31826 15.67163 21961 ft 390 kts 298°
2026-05-01 14:09 42.32943 15.63897 21515 ft 386 kts 299°
2026-05-01 14:09 42.34068 15.60625 21088 ft 382 kts 299°
2026-05-01 14:09 42.35183 15.57389 20639 ft 378 kts 299°
2026-05-01 14:09 42.36288 15.54176 20175 ft 375 kts 299°
2026-05-01 14:10 42.37381 15.50986 19712 ft 372 kts 299°
2026-05-01 14:10 42.38464 15.47820 19257 ft 369 kts 299°
2026-05-01 14:10 42.39537 15.44678 18794 ft 367 kts 299°
2026-05-01 14:10 42.40608 15.41541 18276 ft 365 kts 299°
2026-05-01 14:11 42.41665 15.38435 17791 ft 362 kts 299°
2026-05-01 14:11 42.43752 15.32294 16825 ft 356 kts 299°
2026-05-01 14:11 42.44781 15.29260 16354 ft 353 kts 299°
2026-05-01 14:12 42.45803 15.26242 15864 ft 350 kts 299°
2026-05-01 14:12 42.46813 15.23258 15404 ft 348 kts 299°
2026-05-01 14:12 42.47702 15.20259 14946 ft 349 kts 291°
2026-05-01 14:12 42.48191 15.17029 14465 ft 352 kts 282°
2026-05-01 14:13 42.48533 15.13752 13974 ft 351 kts 282°
2026-05-01 14:13 42.48764 15.11548 13616 ft 350 kts 282°
2026-05-01 14:13 42.49212 15.07250 12972 ft 346 kts 282°
2026-05-01 14:13 42.49545 15.04033 12504 ft 344 kts 282°
2026-05-01 14:14 42.49874 15.00841 12031 ft 342 kts 282°
2026-05-01 14:14 42.50204 14.97658 11558 ft 340 kts 282°
2026-05-01 14:14 42.50531 14.94496 11086 ft 338 kts 282°
2026-05-01 14:14 42.50857 14.91353 10738 ft 332 kts 282°
2026-05-01 14:15 42.51169 14.88313 10611 ft 320 kts 282°
2026-05-01 14:15 42.51469 14.85379 10486 ft 308 kts 282°
2026-05-01 14:15 42.51760 14.82539 10248 ft 302 kts 282°
2026-05-01 14:15 42.52049 14.79750 10105 ft 297 kts 282°
2026-05-01 14:16 42.52340 14.76956 9570 ft 302 kts 282°
2026-05-01 14:16 42.52629 14.74154 9076 ft 298 kts 282°
2026-05-01 14:16 42.52913 14.71361 8637 ft 299 kts 282°
2026-05-01 14:16 42.53190 14.68607 8234 ft 299 kts 281°
2026-05-01 14:17 42.53470 14.65836 7905 ft 296 kts 281°
2026-05-01 14:17 42.53751 14.63062 7527 ft 295 kts 281°
2026-05-01 14:17 42.54027 14.60328 7070 ft 292 kts 281°
2026-05-01 14:17 42.54302 14.57595 6508 ft 291 kts 281°
2026-05-01 14:18 42.54571 14.54898 6059 ft 287 kts 281°
2026-05-01 14:18 42.54842 14.52196 5603 ft 289 kts 281°
2026-05-01 14:18 42.55108 14.49524 5337 ft 284 kts 281°
2026-05-01 14:18 42.55281 14.47782 5062 ft 280 kts 281°
2026-05-01 14:19 42.55631 14.44295 4352 ft 276 kts 281°
2026-05-01 14:19 42.55883 14.41742 3899 ft 270 kts 280°
2026-05-01 14:19 42.56128 14.39252 3560 ft 259 kts 280°
2026-05-01 14:19 42.56358 14.36908 3428 ft 242 kts 281°
2026-05-01 14:20 42.56475 14.34715 3350 ft 233 kts 269°
2026-05-01 14:20 42.54949 14.30573 2833 ft 250 kts 222°
2026-05-01 14:20 42.53640 14.29210 2542 ft 232 kts 220°
2026-05-01 14:21 42.52386 14.27909 2235 ft 221 kts 220°
2026-05-01 14:21 42.51207 14.26684 1943 ft 206 kts 221°
2026-05-01 14:21 42.50122 14.25558 1675 ft 185 kts 221°
2026-05-01 14:22 42.48156 14.23514 1184 ft 175 kts 220°
2026-05-01 14:22 42.47354 14.22359 1120 ft 165 kts 250°
2026-05-01 14:22 42.47013 14.20893 1129 ft 164 kts 262°
2026-05-01 14:22 42.46755 14.19385 1125 ft 165 kts 265°
2026-05-01 14:23 42.46487 14.17871 1134 ft 165 kts 262°
2026-05-01 14:23 42.45893 14.16539 1133 ft 170 kts 227°
2026-05-01 14:23 42.44960 14.15527 1133 ft 173 kts 219°
2026-05-01 14:23 42.43978 14.14570 1124 ft 175 kts 219°
2026-05-01 14:24 42.43001 14.13670 1136 ft 164 kts 218°
2026-05-01 14:24 42.42072 14.12810 1122 ft 161 kts 219°
2026-05-01 14:24 42.41176 14.11982 1089 ft 157 kts 218°
2026-05-01 14:24 42.40166 14.11477 973 ft 158 kts 179°
2026-05-01 14:25 42.39266 14.12159 931 ft 151 kts 109°
2026-05-01 14:25 42.39205 14.13502 929 ft 144 kts 75°
2026-05-01 14:25 42.39626 14.14649 668 ft 137 kts 40°
2026-05-01 14:25 42.40364 14.15442 594 ft 137 kts 34°
2026-05-01 14:26 42.41124 14.16224 415 ft 136 kts 34°
2026-05-01 14:26 42.42605 14.17764 48 ft 125 kts 35°
2026-05-01 14:26 42.43152 14.18324 47 ft 62 kts 37°
2026-05-01 14:27 42.43318 14.18532 48 ft 23 kts 65°
2026-05-01 14:27 42.43356 14.18653 47 ft 8 kts 67°
2026-05-01 14:27 42.43355 14.18736 48 ft 10 kts 117°
2026-05-01 14:28 42.43246 14.18709 48 ft 11 kts 218°
2026-05-01 14:28 42.43184 14.18645 47 ft 12 kts 217°
2026-05-01 14:28 42.43116 14.18575 46 ft 13 kts 217°
2026-05-01 14:28 42.43053 14.18509 48 ft 11 kts 217°
2026-05-01 14:29 42.43019 14.18523 48 ft 6 kts 105°
2026-05-01 14:29 42.43023 14.18584 48 ft 9 kts 79°
2026-05-01 14:30 42.43038 14.18716 48 ft 3 kts 129°
2026-05-01 14:30 42.43032 14.18726 48 ft 0 kts 128°